Terminal Aerodrome Forecast
Issued by NWS

Home | Current Version | Previous Version | Text Only | Print | Product List | Glossary On
Versions: 1 2 3 4 5 6 7 8 9 10 11 12 13 14 15 16 17 18 19 20 21 22 23 24 25 26 27 28
117
FTUS46 KSGX 291739
TAFSAN
TAF
KSAN 291739Z 2918/3024 29010KT P6SM SCT080
     FM300200 VRB04KT P6SM SKC
     FM301000 VRB04KT P6SM SCT007
      TEMPO 3011/3015 2SM BR BKN005
     FM301900 28010KT P6SM SKC=

USA.gov is the U.S. government's official web portal to all federal, state and local government web resources and services.